sat.trackr.live / text

‹ back to catalog

STARLINK-36506

NORAD 67414 · 2026-005L

PAYLOAD ACTIVE UNKNOWN

§ Identity

Operator
Country
US
Launch date
2026-01-12
Launch site
AFETR
Launch vehicle
Mass (kg)
RCS (m²)

Purposes: comms

External: N2YO · Heavens-Above · Gunter

§ Orbital elements

Epoch: 2026-05-25T02:14:42.258624Z

Period
94.26 min
Inclination
42.9996°
Eccentricity
0.0001595
Mean motion
15.27640354 rev/d
Perigee alt
481.8 km
Apogee alt
484.0 km
Semi-major
6,861.0 km
B*
1.0494e-3
RAAN
166.3031°
Arg perigee
268.7969°
Mean anomaly
91.2700°
Rev number
2,038

§ Raw data

STARLINK-365061 67414U 26005L   26145.09354466  .00028781  00000+0  10494-2 0  99952 67414  42.9996 166.3031 0001595 268.7969  91.2700 15.27640354 20389

JSON: /api/v1/satellites/67414 · /tle

For live sub-satellite position, see the globe view (requires WebGL).

§ Visibility from observer

Set your observer location to see the next 7 days of passes ≥ 10°. The values pass through the URL so the page stays shareable.

No JS? Fill the form by hand. The geolocation button needs JavaScript.